View from above orbital plane
|
View from above satellite
|
Ground track
|
The orbit data is extracted from the following two-line orbital elements,
1 37673U 11024A 21059.50607612 .00000108 00000-0 24514-4 0 9997
2 37673 98.0086 69.6062 0001351 124.0512 27.3673 14.73072012522535
Epoch (UTC): | 28 February 2021 12:08:44 |
Eccentricity: | 0.0001351 |
inclination: | 98.0086° |
perigee height: | 650 km |
apogee height: | 652 km |
right ascension of ascending node: | 69.6062° |
argument of perigee: | 124.0512° |
revolutions per day: | 14.73072012 |
mean anomaly at epoch: | 27.3673° |
orbit number at epoch: | 52253 |
The dashed part of the orbit path shows where the satellite is in the earth's shadow,
|
|